Terug naar catalogus

SL-12 DEB

ActiefHEO
NORAD 44560·DEBRIS·🇷🇺 Russia

Gelanceerd Sep 2, 2010 vanaf Baikonur Cosmodrome

Loading…

Volgende Passages (komende 24 uur)

TLE

VersSource: Space-Track

Epoch: Sep 14, 2026, 05:00 UTC

1 44560U 10041AF  26257.20893297  .00001259  00000-0  33406-2 0  9992
2 44560  65.3229 354.3053 5496507 261.0802  36.1404  4.57615945114758

Volg SL-12 DEB in realtime met AllMySat

Download on the App Store